User: anonymous   Login
Location: Unspecified
(0.0000°N, 0.0000°E)
Time: 18:52:43
(UTC+00:00)
Language:

HEATHSAT - Orbit

View from above orbital plane
View from above orbital plane
View from above satellite
View from above satellite

Ground track
Ground track

The orbit data is extracted from the following two-line orbital elements,

1 22827U 93061E   17145.90976083 +.00000007 +00000-0 +19850-4 0  9994
2 22827 098.8127 116.8383 0008923 000.4219 057.3909 14.31208258234608
Epoch (UTC): 25 May 2017 21:50:03
Eccentricity: 0.0008923
inclination: 98.8127°
perigee height: 781 km
apogee height: 794 km
right ascension of ascending node: 116.8383°
argument of perigee: 0.4219°
revolutions per day: 14.31208258
mean anomaly at epoch: 57.3909°
orbit number at epoch: 23460

The dashed part of the orbit path shows where the satellite is in the earth's shadow,  

DLR